Location: Helsinki
(60.1699°N, 24.9384°E)
Time: 10:19:25
(UTC+02:00)

Vanguard 2 Rocket - Pass Details

Date: 22 September 2023
Orbit: 552 x 3312 km, 32.9° (Epoch: 05 December)

Event Time Altitude Azimuth Distance (km) Brightness Sun altitude
Rises 18:50:35 0° 260° (W) 7,094 14.4 3.0°
Reaches altitude 10° 18:59:10 10° 240° (WSW) 5,631 12.2 1.9°
Maximum altitude 19:05:40 14° 217° (SW) 4,837 11.2 1.1°
Drops below altitude 10° 19:11:13 10° 192° (SSW) 4,636 10.7 0.4°
Sets 19:16:51 0° 169° (SSE) 5,035 10.6 -0.3°
